Home   Weather   Escondido   Past weeks
Flag for USA

Past Weather in Escondido, California, USA — Yesterday and Last 2 Weeks

Now
50 °F

Fog.


Feels Like: 49 °F
Forecast: 68 / 51 °F
Wind: 3 mph from East

Location: Ramona Airport

Current Time: Dec 5, 2019 at 9:44:48 pm

Latest Report: Dec 5, 2019 at 8:53 pm


Visibility: 6 mi

Pressure: 30.09 "Hg

Humidity: 93%

Dew Point: 48 °F

Location of EscondidoLocation

Past Weather in Escondido — Graph

°F

Escondido Temperature Yesterday

Maximum temperature yesterday: 59 °F (at 9:10 am)
Minimum temperature yesterday: 52 °F (at 11:31 pm)
Average temperature yesterday: 56 °F

High & Low Weather Summary for the Past Weeks

 TemperatureHumidityPressure
High73 °F (Nov 24, 12:53 pm)100% (Nov 21, 11:36 pm)30.18 "Hg (Nov 21, 11:36 pm)
Low34 °F (Nov 30, 6:35 am)23% (Nov 24, 10:53 am)29.57 "Hg (Nov 28, 10:59 am)
Average51 °F79%29.94 "Hg
* Reported Nov 20 7:04 pm — Dec 5 7:53 pm, Escondido. Weather by CustomWeather, © 2019

Note: Actual official high and low records may vary slightly from our data, if they occured in-between our weather recording intervals... More about our weather records

Escondido Weather History for the Previous 24 Hours

Scroll right to see more
 ConditionsComfort  
Time TempWeatherWind HumidityBarometerVisibility
7:53 pm
Thu, Dec 5
50 °FClear.No wind93%30.09 "Hg10 mi
6:53 pm52 °FClear.No wind89%30.07 "Hg10 mi
5:53 pm54 °FClear.No wind86%30.09 "Hg10 mi
4:53 pm56 °FClear.7 mph84%30.07 "Hg10 mi
3:53 pm61 °FSunny.7 mph72%30.06 "Hg10 mi
2:53 pm65 °FSunny.7 mph54%30.05 "Hg10 mi
1:53 pm65 °FPassing clouds.No wind52%30.04 "Hg10 mi
12:53 pm65 °FPassing clouds.6 mph59%30.06 "Hg10 mi
11:53 am65 °FPassing clouds.5 mph52%30.09 "Hg10 mi
10:53 am63 °FSunny.No wind56%30.12 "Hg10 mi
9:53 am60 °FSunny.No wind72%30.14 "Hg10 mi
8:53 am54 °FSunny.No wind90%30.13 "Hg10 mi
7:53 am49 °FSunny.3 mph97%30.12 "Hg7 mi
7:13 am47 °FFog.3 mph93%30.13 "Hg3 mi
6:27 am44 °FFog.3 mph96%30.11 "Hg1 mi
6:01 am45 °FFog.3 mph93%30.10 "Hg1 mi
5:34 am46 °FFog.3 mph93%30.08 "Hg1 mi
5:15 am46 °FFog.No wind96%30.07 "Hg1 mi
4:31 am47 °FFog.No wind97%30.06 "Hg1 mi
4:07 am48 °FFog.No wind96%30.06 "Hg0 mi
3:36 am50 °FFog.No wind96%30.05 "Hg0 mi
2:59 am52 °FFog.No wind97%30.05 "Hg2 mi
2:23 am50 °FFog.No wind96%30.05 "Hg1 mi
1:53 am51 °FFog.3 mph96%30.03 "Hg5 mi
1:30 am52 °FFog.3 mph93%30.05 "Hg6 mi
1:06 am52 °FFog.3 mph97%30.05 "Hg6 mi
11:53 pm
Wed, Dec 4
52 °FFog.3 mph93%30.03 "Hg5 mi
11:31 pm52 °FPassing clouds.No wind97%30.05 "Hg10 mi
11:22 pm54 °FPassing clouds.3 mph93%30.05 "Hg10 mi
11:13 pm53 °FPartly cloudy.3 mph93%30.06 "Hg10 mi
10:53 pm53 °FMostly cloudy.3 mph93%30.04 "Hg10 mi
10:25 pm53 °FMostly cloudy.No wind96%30.05 "Hg10 mi
10:07 pm53 °FPassing clouds.3 mph96%30.04 "Hg10 mi
9:53 pm54 °FPartly cloudy.6 mph93%30.02 "Hg10 mi
9:28 pm54 °FPassing clouds.6 mph93%30.04 "Hg10 mi
9:01 pm55 °FLight rain. Fog.6 mph96%30.03 "Hg5 mi
Weather by CustomWeather, © 2019

See weather overview

Advertising